Vorticity
8 7 7 7 7 8 8 8 8 8 7 6 8 13 14 9 7 9 14 9 6 14 15 6 3 2 1 13 2 -3 10 26 13 -11 5 6 -7 17 12 9 5 2 24 22 12
10 10 9 8 7 7 7 8 8 8 7 8 6 7 11 14 10 12 3 8 6 14 15 7 3 2 4 9 2 7 -5 -1 -21 13 10 6 10 4 7 1 13 26 16 14 9
9 10 10 11 10 9 8 8 8 8 7 7 9 7 6 10 14 14 8 6 8 15 17 11 7 10 5 4 6 13 4 -21 12 44 17 1 14 10 4 7 -2 4 13 16 11
6 7 8 8 9 10 10 9 9 8 8 8 6 8 7 6 0 14 21 11 4 10 13 8 6 5 1 6 1 -2 -4 -8 17 13 12 13 1 5 20 10 1 7 12 9 11
5 5 5 6 6 7 8 9 10 10 8 9 10 5 7 8 22 -8 1 16 7 7 13 9 7 4 3 1 6 7 10 -22 -19 6 2 -3 20 -10 7 7 9 8 12 6 13
7 6 6 5 5 6 6 7 8 8 10 10 10 10 5 4 14 10 9 1 17 9 12 14 8 5 9 2 5 4 13 -16 41 -2 1 17 -5 36 11 5 3 9 12 9 10
10 10 10 9 8 6 6 6 7 7 7 9 11 10 10 12 4 14 8 17 6 18 10 22 -1 8 -3 10 4 0 -2 15 6 10 3 0 8 17 -15 3 9 8 16 7 13
8 9 10 11 11 11 11 8 7 6 7 7 8 11 8 8 7 5 10 13 8 5 18 12 11 6 4 -5 6 6 6 -6 16 2 5 12 11 6 20 2 9 5 8 4 17
18 19 19 18 16 13 12 13 12 8 7 7 7 7 18 12 13 4 8 16 14 9 19 5 9 5 10 8 -5 15 8 5 3 13 2 0 6 2 11 4 5 5 8 4 16
5 7 8 9 14 24 28 17 15 16 10 7 8 14 26 2 25 9 3 13 10 7 9 6 9 10 5 7 6 8 11 4 9 11 6 2 -1 -14 16 -3 5 5 7 4 4
8 9 6 4 -1 11 18 35 26 31 12 15 -17 22 -19 38 8 15 10 10 8 5 4 11 10 6 7 7 5 -0 6 8 15 5 4 -2 -0 -5 9 -17 16 7 4 9 6
5 4 5 5 8 6 11 -2 22 21 34 9 8 2 6 -17 -2 19 26 6 9 1 6 11 3 6 11 7 11 -1 3 5 3 15 24 5 5 5 9 5 34 -3 9 9 8
10 8 8 4 9 9 8 -0 9 3 22 28 22 18 15 8 -5 10 17 9 7 5 6 4 29 5 10 5 9 6 2 6 7 6 18 5 11 -3 5 -23 20 16 9 8 7
9 8 6 8 7 6 -1 7 9 12 45 22 39 54 29 7 20 3 16 11 11 9 2 7 -24 39 6 7 11 7 5 4 1 3 1 -0 13 7 5 3 -10 22 3 9 7
10 9 13 8 4 14 8 19 18 26 22 18 4 -7 31 15 10 39 7 12 -5 6 -4 12 21 -14 19 7 10 11 15 8 4 1 8 17 1 12 6 6 5 11 15 8 8
13 10 13 9 12 9 15 15 26 12 12 -3 31 11 23 38 -18 -4 47 11 12 -3 23 -11 4 19 -9 20 9 11 9 12 8 4 29 16 -12 27 6 0 0 1 11 9 6
15 11 12 8 9 12 14 10 19 -5 -31 -11 4 -2 6 26 29 -7 23 7 -7 3 10 14 -1 -6 16 -11 17 8 4 28 21 33 -6 20 0 -17 20 36 -14 19 -3 10 6
18 12 14 -8 18 14 7 8 9 -7 -4 8 5 19 23 13 31 34 27 21 12 1 22 1 48 6 1 21 6 5 11 -31 10 12 18 2 22 10 9 -3 20 50 -1 12 7
9 27 46 -8 7 18 12 7 28 -2 -8 4 9 29 -7 -4 34 -20 7 15 3 1 -14 16 8 26 -3 10 10 18 3 2 -5 6 2 13 11 11 14 11 10 23 3 7 12
14 45 35 -10 16 18 1 -1 23 3 1 5 9 -5 -0 -3 1 17 72 10 15 19 -5 -9 5 11 21 -12 17 -15 14 -1 6 5 4 40 23 9 15 15 6 -1 14 12 13
24 16 -1 -9 28 3 4 7 12 -0 10 10 11 12 12 8 7 10 2 14 67 66 21 6 -18 11 6 21 -8 16 1 9 -5 -17 -10 11 43 27 11 19 17 29 -1 27 12
-13 27 11 23 16 18 -0 7 15 17 -3 18 14 12 8 6 25 14 8 8 -1 30 26 74 12 4 8 -6 29 9 14 2 -21 36 9 -25 -13 9 80 9 -3 24 15 -1 13
-2 50 0 8 3 8 9 12 15 16 2 12 19 1 6 9 24 -2 -2 10 5 25 39 25 51 33 30 18 17 9 2 6 7 -13 15 -20 18 11 -2 36 18 32 34 6 13
21 29 19 22 -1 12 8 18 3 0 12 16 5 13 16 19 13 4 -17 34 -12 9 28 7 39 26 -18 9 40 11 6 16 0 2 7 11 -14 15 11 13 21 23 12 21 5
30 21 2 -8 7 6 15 10 8 17 40 14 11 -4 1 6 15 27 -3 20 24 11 26 22 21 16 11 9 41 4 9 10 6 6 -10 22 -10 4 12 26 12 24 26 12 21
15 34 19 8 7 12 9 12 10 10 4 10 7 8 1 8 6 15 7 8 21 -17 10 27 35 13 21 6 16 26 2 10 12 1 13 -3 15 -9 6 24 11 9 3 14 12
3 30 10 16 7 2 15 2 14 14 9 8 4 6 5 3 6 7 4 3 -1 7 9 25 5 21 26 18 11 13 6 41 8 12 2 11 -2 -16 4 -4 -3 -1 4 3 13
Height
3140 3138 3136 3135 3133 3130 3128 3126 3124 3122 3120 3120 3119 3118 3118 3119 3119 3118 3121 3123 3122 3124 3127 3132 3135 3138 3141 3144 3150 3149 3145 3139 3141 3143 3144 3145 3147 3147 3147 3147 3151 3148 3149 3152 3154
3137 3135 3134 3132 3130 3128 3126 3124 3122 3120 3119 3117 3116 3116 3115 3115 3115 3115 3120 3118 3119 3121 3124 3128 3133 3137 3139 3142 3150 3152 3149 3145 3140 3145 3144 3146 3147 3149 3151 3152 3150 3148 3150 3153 3156
3135 3133 3131 3129 3127 3125 3124 3121 3120 3118 3117 3115 3114 3113 3112 3112 3112 3112 3112 3114 3116 3119 3122 3126 3131 3135 3138 3143 3147 3149 3148 3143 3139 3144 3147 3147 3148 3151 3152 3154 3151 3150 3152 3155 3159
3133 3130 3128 3126 3124 3122 3120 3118 3116 3115 3114 3113 3111 3110 3110 3110 3114 3106 3110 3112 3114 3116 3118 3122 3128 3134 3138 3141 3145 3148 3146 3144 3142 3142 3145 3147 3147 3151 3153 3153 3151 3152 3154 3157 3160
3131 3127 3125 3123 3120 3119 3117 3115 3113 3111 3110 3109 3108 3106 3106 3106 3107 3106 3108 3109 3111 3113 3115 3119 3125 3132 3135 3140 3144 3144 3143 3145 3146 3146 3146 3148 3152 3153 3155 3156 3153 3153 3156 3157 3160
3128 3125 3122 3119 3117 3114 3113 3111 3109 3107 3106 3105 3105 3103 3102 3101 3104 3102 3104 3107 3108 3111 3113 3116 3124 3131 3136 3139 3141 3143 3144 3143 3143 3148 3150 3151 3148 3149 3155 3152 3154 3154 3157 3159 3163
3124 3120 3118 3115 3112 3109 3107 3106 3104 3103 3101 3100 3100 3098 3097 3101 3100 3101 3100 3104 3106 3108 3110 3115 3124 3130 3134 3137 3139 3141 3142 3142 3143 3146 3148 3150 3152 3152 3151 3150 3152 3155 3158 3161 3164
3120 3117 3113 3110 3106 3104 3101 3099 3098 3097 3096 3095 3094 3092 3090 3095 3095 3097 3098 3099 3103 3106 3108 3114 3122 3128 3132 3136 3137 3137 3139 3138 3139 3143 3145 3148 3148 3150 3144 3150 3152 3156 3159 3161 3164
3117 3113 3108 3104 3101 3097 3094 3092 3091 3090 3089 3089 3088 3087 3086 3088 3089 3093 3094 3096 3100 3104 3106 3114 3120 3123 3129 3130 3132 3130 3131 3133 3135 3138 3142 3145 3144 3147 3149 3144 3147 3155 3159 3161 3164
3115 3110 3105 3101 3096 3091 3088 3084 3082 3081 3082 3082 3081 3084 3083 3083 3083 3086 3090 3093 3097 3103 3106 3110 3115 3118 3120 3121 3117 3124 3128 3129 3131 3134 3138 3139 3141 3141 3145 3144 3145 3147 3155 3159 3161
3113 3108 3102 3098 3092 3086 3082 3079 3079 3074 3072 3073 3072 3071 3074 3078 3078 3080 3084 3089 3096 3100 3100 3105 3108 3100 3107 3114 3120 3123 3124 3125 3125 3128 3130 3134 3136 3139 3142 3140 3144 3145 3148 3156 3159
3112 3106 3100 3095 3090 3084 3078 3076 3074 3069 3053 3062 3062 3060 3067 3070 3075 3074 3078 3083 3087 3090 3098 3103 3090 3100 3109 3113 3116 3118 3118 3118 3121 3122 3127 3129 3131 3134 3135 3135 3140 3143 3146 3151 3158
3109 3104 3099 3092 3089 3085 3080 3075 3071 3065 3051 3037 3050 3050 3059 3062 3061 3069 3070 3074 3079 3085 3087 3087 3087 3099 3102 3106 3109 3111 3113 3115 3116 3118 3122 3127 3128 3129 3134 3135 3139 3143 3144 3147 3153
3104 3099 3094 3090 3086 3081 3079 3074 3068 3062 3050 3032 3036 3040 3045 3052 3049 3060 3063 3070 3075 3075 3082 3084 3090 3091 3095 3098 3103 3104 3111 3114 3113 3113 3114 3120 3119 3123 3127 3131 3132 3139 3142 3145 3147
3100 3096 3091 3085 3082 3078 3074 3069 3066 3064 3061 3042 3043 3040 3042 3038 3050 3046 3059 3062 3064 3068 3078 3071 3079 3084 3087 3089 3097 3100 3107 3111 3112 3111 3111 3109 3113 3114 3120 3124 3129 3134 3137 3141 3142
3096 3091 3087 3083 3077 3073 3069 3067 3065 3069 3052 3045 3044 3041 3044 3043 3043 3047 3048 3056 3063 3067 3068 3071 3077 3080 3083 3088 3092 3099 3103 3106 3109 3110 3103 3104 3107 3106 3110 3116 3123 3126 3131 3134 3139
3092 3087 3082 3077 3075 3070 3067 3066 3071 3065 3053 3046 3040 3039 3035 3037 3042 3042 3045 3047 3047 3056 3054 3065 3066 3073 3077 3082 3087 3092 3096 3097 3097 3095 3093 3105 3103 3099 3105 3109 3114 3118 3124 3130 3135
3089 3081 3077 3073 3070 3068 3066 3069 3066 3059 3057 3051 3045 3039 3039 3037 3033 3037 3040 3040 3044 3048 3055 3053 3056 3057 3066 3070 3077 3081 3085 3083 3086 3087 3093 3100 3091 3092 3103 3105 3109 3112 3116 3124 3129
3085 3078 3072 3072 3070 3066 3068 3066 3060 3059 3057 3052 3047 3041 3037 3033 3031 3032 3029 3030 3036 3041 3042 3046 3045 3057 3060 3067 3072 3075 3073 3084 3085 3085 3086 3085 3089 3093 3097 3099 3101 3107 3112 3115 3121
3080 3075 3070 3070 3068 3065 3067 3063 3060 3058 3056 3054 3050 3048 3042 3037 3034 3030 3022 3027 3032 3036 3042 3038 3045 3046 3051 3062 3063 3063 3076 3081 3080 3078 3075 3073 3074 3075 3083 3089 3095 3100 3105 3110 3116
3080 3077 3072 3069 3066 3066 3062 3059 3055 3055 3055 3052 3048 3044 3043 3037 3038 3034 3026 3018 3020 3028 3034 3038 3039 3038 3045 3043 3049 3059 3064 3071 3077 3075 3070 3067 3065 3066 3067 3077 3087 3093 3100 3106 3111
3076 3075 3073 3067 3065 3063 3059 3057 3056 3050 3049 3046 3044 3043 3040 3038 3036 3033 3026 3021 3017 3021 3021 3027 3031 3032 3029 3036 3046 3053 3057 3062 3064 3069 3068 3066 3063 3063 3064 3071 3080 3086 3092 3101 3108
3074 3070 3072 3067 3065 3062 3059 3056 3053 3047 3047 3043 3041 3039 3039 3036 3035 3029 3021 3017 3017 3017 3017 3017 3016 3023 3027 3029 3032 3038 3048 3056 3063 3068 3065 3066 3066 3066 3067 3073 3078 3082 3089 3096 3104
3071 3068 3066 3065 3064 3061 3057 3054 3050 3049 3044 3043 3042 3039 3036 3034 3034 3026 3024 3017 3015 3014 3013 3012 3013 3013 3013 3016 3024 3032 3041 3049 3054 3057 3062 3063 3066 3068 3069 3073 3077 3080 3087 3093 3100
3072 3070 3064 3062 3060 3058 3056 3053 3049 3046 3043 3041 3039 3035 3036 3033 3028 3026 3022 3017 3013 3013 3012 3015 3013 3015 3015 3018 3022 3026 3035 3041 3045 3052 3056 3059 3063 3064 3068 3072 3077 3082 3087 3092 3097
3068 3063 3059 3058 3058 3055 3052 3050 3047 3044 3043 3039 3037 3034 3031 3031 3028 3025 3022 3020 3015 3011 3012 3010 3012 3014 3013 3015 3020 3021 3025 3033 3040 3047 3054 3056 3060 3060 3067 3071 3077 3080 3082 3086 3091
3063 3061 3056 3052 3051 3051 3049 3047 3045 3043 3040 3038 3035 3031 3027 3026 3024 3024 3023 3020 3019 3018 3017 3016 3015 3016 3010 3016 3017 3017 3019 3026 3035 3044 3050 3052 3057 3057 3064 3069 3074 3079 3083 3085 3089